Regional Weather Roundup
Issued by NWS

Home | Current Version | Previous Version | Text Only | Print | Product List | Glossary Off
Versions: 1 2 3 4 5 6 7 8 9 10 11 12 13 14 15 16 17 18 19 20 21 22 23 24 25 26 27 28 29 30 31 32 33 34 35 36 37 38 39 40 41 42 43 44 45 46 47 48 49 50

000
ASUS45 KABQ 142310
RWRNM
WEATHER ROUNDUP FOR NEW MEXICO
NATIONAL WEATHER SERVICE ALBUQUERQUE NM
500 PM MDT SUN SEP 14 2014

NOTE: "FAIR" MEANS FEW OR NO CLOUDS BELOW 12,000 FEET AGL WITH NO
       SIGNIFICANT WEATHER OR OBSTRUCTIONS TO VISION.

      THIS PRODUCT IS RELEASED AS TWO VERSIONS.  ONE VERSION NEAR
      THE TOP OF THE HOUR CONTAINING PRELIMINARY DATA FROM ALBUQUERQUE
      AND OTHER STATIONS.  A FINAL VERSION WITH ADDITIONAL DATA IS
      ISSUED ABOUT 10 MINUTES AFTER THE HOUR.

NMZ501-503-504-510>518-150000-
NORTHWEST PLATEAU/NORTHCENTRAL MOUNTAINS

CITY           SKY/WX    TMP DP  RH WIND       PRES   REMARKS
FARMINGTON     SUNNY     84  38  19 W5        30.09F
LOS ALAMOS     PTSUNNY   75  38  25 CALM      30.25F
SANTA FE       MOSUNNY   79  43  27 SW5       30.18F
ANGEL FIRE     FAIR      73  20  13 W9G16     30.30F

$$
NMZ402-403-502-505>509-150000-
WESTCENTRAL MOUNTAINS/SOUTHWEST MOUNTAINS

CITY           SKY/WX    TMP DP  RH WIND       PRES   REMARKS
GALLUP         MOSUNNY   83  39  21 NE10      30.15S
GRANTS         MOSUNNY   75  45  33 SE16      30.20S
SILVER CITY    PTSUNNY   75  54  46 E15G23    30.18S

$$
NMZ407-409-411-412-150000-
SOUTHERN DESERTS

CITY           SKY/WX    TMP DP  RH WIND       PRES   REMARKS
LORDSBURG      FAIR      81  54  39 SE20G26   30.06F
DEMING         PTSUNNY   79  55  43 E12G17    30.09F
LAS CRUCES     CLOUDY    78  56  46 SE10G16   30.13S
HOLLOMAN AFB   PTSUNNY   78  57  48 S15       30.11F
ALAMOGORDO     PTSUNNY   77  55  47 S15G21    30.13S
T OR C         CLOUDY    76  53  44 S8        30.13F

$$
NMZ519>523-150000-
CENTRAL VALLEYS/CENTRAL HIGHLANDS

CITY           SKY/WX    TMP DP  RH WIND       PRES   REMARKS
ALBUQUERQUE    MOSUNNY   81  51  35 SW16      30.14F
DOUBLE EAGLE   MOSUNNY   79  52  38 S14G21    30.17F
MORIARTY ARPT  CLOUDY    65  58  78 SW7       30.23S
CLINES CORNERS LGT RAIN  66  54  65 S13       30.27R
BELEN          FAIR      80  51  36 S16       30.14S
SOCORRO        FAIR      79  52  38 SE10G16   30.13S

$$
NMZ524>526-539-540-150000-
SOUTHCENTRAL MOUNTAINS

CITY           SKY/WX    TMP DP  RH WIND       PRES   REMARKS
RUIDOSO        NOT AVBL

$$
NMZ527>531-150000-
NORTHEAST HIGHLANDS/NORTHEAST PLAINS

CITY           SKY/WX    TMP DP  RH WIND       PRES   REMARKS
LAS VEGAS      CLOUDY    66  52  60 SW13G24   30.29R THUNDER
RATON          MOSUNNY   78  50  37 S20G30    30.16R
CLAYTON        SUNNY     77  55  46 S23G32    30.12R

$$
NMZ532>537-150000-
EASTCENTRAL PLAINS

CITY           SKY/WX    TMP DP  RH WIND       PRES   REMARKS
TUCUMCARI      PTSUNNY   75  58  55 S22       30.13S
CANNON AFB     CLOUDY    72  58  62 S16       30.20S
CLOVIS AIRPORT   N/A     72  61  68 S18       30.22S

$$
NMZ028-029-538-150000-
SOUTHEAST PLAINS

CITY           SKY/WX    TMP DP  RH WIND       PRES   REMARKS
ROSWELL        LGT RAIN  64  62  93 SE8       30.18S
CARLSBAD       CLOUDY    65  63  93 SE12      30.17S
HOBBS          CLOUDY    64  63  94 SE10      30.22S


$$



USA.gov is the U.S. government's official web portal to all federal, state and local government web resources and services.